EN

Hourly Weather Dzialy

Today, 29 October, Thursday

Time Temperature Precipitation Wind Pressure Humidity
00:00 +10°C° 0 mm 1 mps 721 mmHg 91%
01:00 +9°C° 0 mm 2 mps 721 mmHg 92%
02:00 +9°C° 0 mm 2 mps 720 mmHg 91%
03:00 +9°C° 0 mm 1 mps 720 mmHg 91%
04:00 +9°C° 0 mm 1 mps 720 mmHg 91%
05:00 +9°C° 0 mm 1 mps 720 mmHg 90%
06:00 +9°C° 0 mm 1 mps 720 mmHg 89%
07:00 +8°C° 0 mm 2 mps 720 mmHg 88%
08:00 +9°C° 0 mm 2 mps 720 mmHg 81%
09:00 +12°C° 0 mm 2 mps 721 mmHg 73%
10:00 +13°C° 0 mm 2 mps 721 mmHg 65%
11:00 +12°C° 0 mm 3 mps 721 mmHg 66%
12:00 +12°C° 0 mm 4 mps 720 mmHg 66%
13:00 +13°C° 0 mm 4 mps 720 mmHg 67%
14:00 +12°C° 0.1 mm 4 mps 720 mmHg 72%
15:00 +11°C° 0.1 mm 3 mps 720 mmHg 76%
16:00 +10°C° 0.1 mm 3 mps 720 mmHg 81%
17:00 +9°C° 0.2 mm 3 mps 720 mmHg 83%
18:00 +9°C° 0.2 mm 3 mps 721 mmHg 85%
19:00 +8°C° 0.2 mm 3 mps 721 mmHg 86%
20:00 +8°C° 0.3 mm 3 mps 721 mmHg 86%
21:00 +8°C° 0.3 mm 3 mps 722 mmHg 86%
22:00 +7°C° 0.3 mm 3 mps 722 mmHg 87%
23:00 +5°C° 0 mm 3 mps 722 mmHg 88%

Tomorrow, 30 October, Friday

Time Temperature Precipitation Wind Pressure Humidity
00:00 +6°C° 0 mm 2 mps 723 mmHg 89%
01:00 +5°C° 0 mm 2 mps 723 mmHg 90%
02:00 +4°C° 0 mm 2 mps 723 mmHg 90%
03:00 +4°C° 0 mm 2 mps 723 mmHg 90%
04:00 +4°C° 0 mm 2 mps 723 mmHg 90%
05:00 +4°C° 0 mm 2 mps 723 mmHg 89%
06:00 +4°C° 0 mm 2 mps 723 mmHg 88%
07:00 +4°C° 0 mm 2 mps 723 mmHg 87%
08:00 +5°C° 0 mm 2 mps 723 mmHg 84%
09:00 +7°C° 0 mm 2 mps 723 mmHg 80%
10:00 +8°C° 0 mm 2 mps 723 mmHg 76%
11:00 +8°C° 0.5 mm 2 mps 723 mmHg 80%
12:00 +7°C° 0.5 mm 2 mps 722 mmHg 85%
13:00 +7°C° 0.5 mm 2 mps 722 mmHg 89%
14:00 +7°C° 0.8 mm 2 mps 722 mmHg 91%
15:00 +7°C° 0.8 mm 2 mps 721 mmHg 92%
16:00 +7°C° 0.8 mm 2 mps 721 mmHg 93%
17:00 +8°C° 0.6 mm 3 mps 721 mmHg 93%
18:00 +8°C° 0.6 mm 3 mps 721 mmHg 93%
19:00 +9°C° 0.6 mm 3 mps 721 mmHg 94%
20:00 +8°C° 0.5 mm 4 mps 721 mmHg 94%
21:00 +8°C° 0.5 mm 4 mps 721 mmHg 94%
22:00 +8°C° 0.5 mm 4 mps 721 mmHg 95%
23:00 +8°C° 1.2 mm 4 mps 721 mmHg 95%

Day after tomorrow, 31 October, Saturday

Time Temperature Precipitation Wind Pressure Humidity
00:00 +10°C° 1.2 mm 4 mps 721 mmHg 96%
01:00 +10°C° 1.2 mm 4 mps 720 mmHg 96%
02:00 +10°C° 1.5 mm 4 mps 721 mmHg 96%
03:00 +10°C° 1.5 mm 3 mps 721 mmHg 97%
04:00 +10°C° 1.5 mm 3 mps 721 mmHg 97%
05:00 +10°C° 1.7 mm 3 mps 722 mmHg 97%
06:00 +9°C° 1.7 mm 2 mps 722 mmHg 97%
07:00 +10°C° 1.7 mm 1 mps 722 mmHg 97%
08:00 +10°C° 0.3 mm 1 mps 723 mmHg 94%
09:00 +10°C° 0.3 mm 1 mps 723 mmHg 90%
10:00 +10°C° 0.3 mm 1 mps 724 mmHg 87%
11:00 +11°C° 0 mm 1 mps 724 mmHg 83%
12:00 +11°C° 0 mm 1 mps 724 mmHg 80%
13:00 +11°C° 0 mm 1 mps 724 mmHg 76%
14:00 +11°C° 0 mm 1 mps 724 mmHg 78%
15:00 +10°C° 0 mm 1 mps 725 mmHg 81%
16:00 +9°C° 0 mm 1 mps 725 mmHg 83%
17:00 +8°C° 0 mm 1 mps 725 mmHg 86%
18:00 +8°C° 0 mm 1 mps 725 mmHg 88%
19:00 +6°C° 0 mm 0 mps 726 mmHg 90%
20:00 +5°C° 0 mm 0 mps 726 mmHg 91%
21:00 +5°C° 0 mm 0 mps 726 mmHg 92%
22:00 +6°C° 0 mm 1 mps 726 mmHg 92%
23:00 +6°C° 0 mm 1 mps 726 mmHg 93%

1 November, Sunday

Time Temperature Precipitation Wind Pressure Humidity
00:00 +5°C° 0 mm 1 mps 726 mmHg 94%
01:00 +4°C° 0 mm 0 mps 726 mmHg 94%
02:00 +5°C° 0 mm 1 mps 726 mmHg 94%
03:00 +4°C° 0 mm 1 mps 726 mmHg 94%
04:00 +4°C° 0 mm 1 mps 726 mmHg 94%
05:00 +4°C° 0 mm 1 mps 726 mmHg 93%
06:00 +4°C° 0 mm 1 mps 726 mmHg 93%
07:00 +4°C° 0 mm 1 mps 726 mmHg 93%
08:00 +5°C° 0 mm 1 mps 726 mmHg 86%
09:00 +7°C° 0 mm 1 mps 726 mmHg 78%
10:00 +9°C° 0 mm 1 mps 726 mmHg 71%
11:00 +10°C° 0 mm 1 mps 726 mmHg 66%
12:00 +11°C° 0 mm 1 mps 726 mmHg 62%
13:00 +12°C° 0 mm 1 mps 726 mmHg 57%
14:00 +11°C° 0 mm 1 mps 725 mmHg 63%
15:00 +9°C° 0 mm 1 mps 725 mmHg 69%
16:00 +8°C° 0 mm 1 mps 725 mmHg 75%
17:00 +7°C° 0 mm 1 mps 725 mmHg 77%
18:00 +7°C° 0 mm 1 mps 725 mmHg 79%
19:00 +6°C° 0 mm 1 mps 725 mmHg 82%
20:00 +6°C° 0 mm 1 mps 725 mmHg 82%
21:00 +5°C° 0 mm 1 mps 725 mmHg 82%
22:00 +5°C° 0 mm 1 mps 725 mmHg 83%
23:00 +5°C° 0 mm 1 mps 724 mmHg 83%

2 November, Monday

Time Temperature Precipitation Wind Pressure Humidity
00:00 +5°C° 0 mm 1 mps 724 mmHg 84%
01:00 +4°C° 0 mm 1 mps 724 mmHg 84%
02:00 +4°C° 0 mm 1 mps 724 mmHg 83%
03:00 +4°C° 0 mm 1 mps 724 mmHg 82%
04:00 +4°C° 0 mm 1 mps 724 mmHg 81%
05:00 +4°C° 0 mm 1 mps 724 mmHg 79%
06:00 +4°C° 0 mm 1 mps 724 mmHg 77%
07:00 +4°C° 0 mm 1 mps 724 mmHg 75%
08:00 +6°C° 0 mm 1 mps 724 mmHg 69%
09:00 +8°C° 0 mm 1 mps 724 mmHg 62%
10:00 +10°C° 0 mm 0 mps 724 mmHg 56%
11:00 +12°C° 0 mm 1 mps 724 mmHg 55%
12:00 +13°C° 0 mm 1 mps 724 mmHg 53%
13:00 +14°C° 0 mm 1 mps 724 mmHg 52%
14:00 +12°C° 0 mm 1 mps 724 mmHg 59%
15:00 +11°C° 0 mm 1 mps 723 mmHg 66%
16:00 +9°C° 0 mm 1 mps 723 mmHg 73%
17:00 +9°C° 0 mm 1 mps 723 mmHg 76%
18:00 +8°C° 0 mm 1 mps 723 mmHg 78%
19:00 +7°C° 0 mm 1 mps 723 mmHg 80%
20:00 +7°C° 0 mm 1 mps 723 mmHg 81%
21:00 +7°C° 0 mm 1 mps 723 mmHg 82%
22:00 +6°C° 0 mm 1 mps 723 mmHg 83%
23:00 +6°C° 0 mm 1 mps 723 mmHg 84%

3 November, Tuesday

Time Temperature Precipitation Wind Pressure Humidity
00:00 +6°C° 0 mm 1 mps 722 mmHg 84%
01:00 +6°C° 0 mm 1 mps 722 mmHg 85%
02:00 +5°C° 0 mm 1 mps 722 mmHg 85%
03:00 +5°C° 0 mm 1 mps 722 mmHg 84%
04:00 +5°C° 0 mm 1 mps 722 mmHg 84%
05:00 +5°C° 0 mm 1 mps 722 mmHg 84%
06:00 +5°C° 0 mm 1 mps 722 mmHg 83%
07:00 +4°C° 0 mm 1 mps 722 mmHg 83%
08:00 +6°C° 0 mm 1 mps 722 mmHg 76%
09:00 +8°C° 0 mm 1 mps 723 mmHg 69%
10:00 +11°C° 0 mm 1 mps 723 mmHg 63%
11:00 +11°C° 0 mm 1 mps 723 mmHg 61%
12:00 +12°C° 0 mm 1 mps 723 mmHg 60%
13:00 +13°C° 0 mm 1 mps 723 mmHg 59%
14:00 +11°C° 0 mm 1 mps 723 mmHg 66%
15:00 +10°C° 0 mm 1 mps 723 mmHg 74%
16:00 +8°C° 0 mm 1 mps 722 mmHg 82%
17:00 +8°C° 0 mm 1 mps 723 mmHg 84%
18:00 +7°C° 0 mm 1 mps 723 mmHg 86%
19:00 +7°C° 0 mm 1 mps 723 mmHg 88%
20:00 +6°C° 0 mm 1 mps 723 mmHg 89%
21:00 +6°C° 0 mm 1 mps 723 mmHg 89%
22:00 +6°C° 0 mm 1 mps 724 mmHg 90%
23:00 +6°C° 0 mm 1 mps 724 mmHg 90%
Show more